Location: STAR School
(35.3054°N, 111.2976°W)
Time: 02:06:19
(UTC-07:00)

N. Korean satellite - Pass Details

Date: 22 October 2019
Orbit: 456 x 506 km, 97.2° (Epoch: 12 November)

Event Time Altitude Azimuth Distance (km) Brightness Sun altitude
Rises 18:30:17 0° 206° (SSW) 2,454 10.6 -10.6°
Reaches altitude 10° 18:33:03 10° 232° (SW) 1,589 10.1 -11.2°
Maximum altitude 18:34:58 14° 266° (W) 1,354 10.2 -11.6°
Drops below altitude 10° 18:36:53 10° 301° (WNW) 1,602 10.1 -12.0°
Sets 18:39:43 0° 327° (NNW) 2,489 10.6 -12.6°
